Hourly Data Report for October 20, 2016

All times are specified in Local Standard Time (LST). Add 1 hour to adjust for Daylight Saving Time where and when it is observed.

EUREKA CLIMATE
NUNAVUT

79°59'21.000" N
85°56'02.000" W
10.00 m
2401199
71613
NEK

Download Data

Hourly Data (October 2016)
Hourly Data Report for October 20, 2016
Temp Definition
°C
Dew Point Temp Definition
°C
Rel Hum Definition
%
Wind Dir Definition
10's deg

Wind Spd Definition
km/h
Visibility Definition
km
Stn Press Definition
kPa
Hmdx Definition


Wind Chill Definition


Weather Definition


TIME
00:00 -17.4 -18.7 89 29 9   101.08   -24 LegendNANA
01:00 -17.3 -18.7 89 28 5   101.08   -21 LegendNANA
02:00 -17.6 -19.0 89 29 6   101.06   -22 LegendNANA
03:00 -18.0 -19.4 89 29 1   101.08   -19 LegendNANA
04:00 -18.4 -19.9 88 34 3   101.05   -21 LegendNANA
05:00 -19.4 -20.9 87 34 4   101.05   -23 LegendNANA
06:00 -20.6 -22.3 86 36 2   101.02   -22 LegendNANA
07:00 -21.4 -23.3 85 3 5   101.00   -26 LegendNANA
08:00 -21.4 -23.2 85 2 4   100.97   -25 LegendNANA
09:00 -23.0 -24.9 84 2 5   100.94   -28 LegendNANA
10:00 -22.9 -24.8 85 2 5   100.94   -28 LegendNANA
11:00 -22.1 -24.0 85 2 4   100.91   -26 LegendNANA
12:00 -21.7 -23.5 85 4 3   100.92   -24 LegendNANA
13:00 -21.3 -23.1 85 12 3   100.94   -24 LegendNANA
14:00 -21.5 -23.3 85 12 3   100.96   -24 LegendNANA
15:00 -22.4 -24.2 85 12 3   100.98   -25 LegendNANA
16:00 -22.7 -24.7 84 12 2   101.00   -25 LegendNANA
17:00 -22.7 -24.7 84 11 2   101.02   -25 LegendNANA
18:00 -23.1 -25.1 84 12 5   101.04   -28 LegendNANA
19:00 -23.0 -24.9 84 11 7   101.07   -29 LegendNANA
20:00 -22.7 -24.7 84 11 6   101.10   -28 LegendNANA
21:00 -22.4 -24.3 85 11 3   101.12   -25 LegendNANA
22:00 -22.2 -24.1 85 4 3   101.14   -25 LegendNANA
23:00 -21.8 -23.6 85 4 2   101.15   -24 LegendNANA

Notes on Data Quality.

Legend

  • E = Estimated
  • M = Missing
  • NA = Not Available
  • ‡ = Partner data that is not subject to review by the National Climate Archives
Date modified: